{"data":{"norad_id":68035,"intl_designator":"2026-040W","name":"STARLINK-36943","alt_names":[],"object_type":"PAYLOAD","status":"ACTIVE","operator":null,"country":"US","launch_date":"2026-03-01","launch_site_code":"AFWTR","launch_vehicle":null,"mission":null,"orbit_class":"UNKNOWN","rcs_meters":null,"size_class":null,"mass_kg":null,"dimensions":null,"purposes":["comms"],"wikipedia_slug":null,"has_3d_model":false,"image_url":null,"decayed_at":null,"tle_current":{"epoch":"2026-09-19T20:41:51.811008Z","epoch_age_seconds":114661,"freshness":"FRESH","line1":"1 68035U 26040W   26262.86240522  .00022609  00000+0  70037-3 0  9999","line2":"2 68035  97.2852 210.2693 0000475  35.3986 324.7289 15.33454017 32351","mean_motion":15.33454017,"eccentricity":4.75e-5,"inclination_deg":97.2852,"raan_deg":210.2693,"arg_perigee_deg":35.3986,"mean_anomaly_deg":324.7289,"bstar":0.00070037,"rev_number":3235,"period_min":93.905652470569,"perigee_km":465.19127282764,"apogee_km":465.84141989555,"semimajor_km":6843.6533463616,"source":"CELESTRAK","updated_at":"2026-09-20T09:00:43.745617Z"}}}